Stations météo

réclame
Mon MeteoGroup
Werl, Allemagne (10424): Température de l'air & dewpoint: 11.07.2019 10:00:00 - 17.07.2019 10:00:00 (CEST)Werl, Allemagne (10424): Température de l'air 5cm & Température de l'air -5cm: 11.07.2019 10:00:00 - 17.07.2019 10:00:00 (CEST)Werl, Allemagne (10424): Température de l'air -20cm & Température de l'air -100cm: 11.07.2019 10:00:00 - 17.07.2019 10:00:00 (CEST)Werl, Allemagne (10424): Vitesse du vent & gusts: 11.07.2019 10:00:00 - 17.07.2019 10:00:00 (CEST)Werl, Allemagne (10424): Direction du vent: 11.07.2019 10:00:00 - 17.07.2019 10:00:00 (CEST)Werl, Allemagne (10424): reduced air pressure: 11.07.2019 10:00:00 - 17.07.2019 10:00:00 (CEST)Werl, Allemagne (10424): visibility: 11.07.2019 10:00:00 - 17.07.2019 10:00:00 (CEST)Werl, Allemagne (10424): Ensoleillement: 11.07.2019 10:00:00 - 17.07.2019 10:00:00 (CEST)Werl, Allemagne (10424): Quantités de précipitations: 11.07.2019 10:00:00 - 17.07.2019 10:00:00 (CEST)
Date & Time tt [°C] td [°C] tt 5cm [°C] tt -5cm [°C] tt -20cm [°C] tt -100cm [°C] ff [km/h] ff [knt] fx [km/h] fx [knt] dd ppp [hPa] vv [km] sd [min] rr [mm]
17.07.2019 10:00:00 15,9 12,0 17,4 17,3 16,2 17,3 3 1 7 4 E 1016,6 20 0 0,0
17.07.2019 09:00:00 15,0 11,7 16,0 16,2 16,2 17,3 4 2 8 5 NNE 1016,6 19 0 0,0
17.07.2019 08:00:00 14,8 11,9 15,2 15,5 16,2 17,3 6 3 9 5 NNE 1016,6 18 0 0,0
17.07.2019 07:00:00 14,5 12,8 14,6 15,4 16,3 17,3 3 1 6 3 NW 1016,7 16 0 0,0
17.07.2019 06:00:00 14,3 13,2 14,3 15,4 16,3 17,3 3 1 4 2 NNW 1016,8 15 0 0,0
17.07.2019 05:00:00 14,4 13,0 14,3 15,5 16,4 17,4 0 0 5 3 N 1016,7 17 0 0,0
17.07.2019 04:00:00 14,5 12,8 14,3 15,6 16,5 17,4 3 2 5 3 ESE 1016,9 20 0 0,0
17.07.2019 03:00:00 14,8 12,7 14,5 15,7 16,5 17,4 0 0 5 3 N 1017,3 24 0 0,0
17.07.2019 02:00:00 14,8 13,0 14,7 15,8 16,6 17,4 2 1 6 3 N 1017,6 22 0 0,0
17.07.2019 01:00:00 15,2 12,6 15,0 15,9 16,7 17,4 3 1 6 4 NE 1017,7 28 0 0,0
17.07.2019 00:00:00 15,4 12,5 15,2 16,1 16,8 17,4 5 3 10 5 E 1017,9 31 0 0,0
16.07.2019 23:00:00 15,7 12,5 15,4 16,3 16,9 17,4 5 3 8 4 ENE 1018,0 33 0 0,0
16.07.2019 22:00:00 16,0 12,3 15,7 16,7 16,9 17,4 6 3 9 5 NE 1018,0 37 0 0,0
16.07.2019 21:00:00 16,9 11,7 16,9 17,2 16,9 17,5 3 2 8 4 NNW 1018,0 28 0 0,0
16.07.2019 20:00:00 17,2 11,5 17,3 17,6 16,9 17,5 5 3 14 8 W 1018,1 18 0 0,0
16.07.2019 19:00:00 17,0 11,1 17,6 17,7 16,8 17,5 7 4 19 10 W 1018,2 18 0 0,0
16.07.2019 18:00:00 16,8 10,9 17,9 18,1 16,6 17,5 8 4 18 10 WNW 1018,4 13 0 0,0
16.07.2019 17:00:00 16,7 11,2 18,2 18,0 16,4 17,5 9 5 17 9 WSW 1018,8 19 0 0,0
16.07.2019 16:00:00 16,4 10,8 17,9 17,9 16,2 17,5 12 7 20 11 W 1019,0 21 0 0,0
16.07.2019 15:00:00 16,1 10,8 17,8 17,3 16,0 17,5 10 6 19 11 WSW 1019,1 20 0 0,0
16.07.2019 14:00:00 15,7 10,7 17,3 16,9 15,8 17,5 13 7 24 13 W 1019,1 34 0 0,0
16.07.2019 13:00:00 15,1 10,8 16,3 16,1 15,6 17,5 14 8 21 11 W 1019,3 28 0 0,0
16.07.2019 12:00:00 14,8 10,7 15,8 15,8 15,4 17,6 14 8 22 12 W 1019,4 35 0 0,0
16.07.2019 11:00:00 14,4 10,5 15,5 15,3 15,3 17,6 12 7 19 11 W 1019,3 42 0 0,0
16.07.2019 10:00:00 13,9 10,2 14,7 14,8 15,1 17,6 13 7 17 9 W 1019,4 57 0 0,0
16.07.2019 09:00:00 13,5 10,7 14,3 14,4 15,1 17,6 7 4 13 7 WSW 1019,2 36 0 0,0
16.07.2019 08:00:00 12,6 10,3 13,0 13,7 15,0 17,6 8 4 11 6 WSW 1019,2 24 0 0,0
16.07.2019 07:00:00 12,1 10,7 12,3 13,2 15,0 17,6 5 3 11 6 WSW 1019,1 18 0 0,0
16.07.2019 06:00:00 11,6 10,0 11,6 12,8 15,1 17,6 6 4 12 6 W 1019,1 18 0 0,0
16.07.2019 05:00:00 11,3 9,8 11,0 12,5 15,2 17,6 7 4 11 6 W 1019,0 18 0 0,0
16.07.2019 04:00:00 9,8 8,9 9,4 11,8 15,5 17,6 6 3 9 5 W 1019,4 15 0 0,0
16.07.2019 03:00:00 9,5 8,7 7,4 11,9 15,8 17,6 8 4 9 5 W 1019,7 19 0 0,0
16.07.2019 02:00:00 9,9 8,7 7,3 12,4 16,2 17,7 6 3 9 5 WSW 1019,7 22 0 0,0
16.07.2019 01:00:00 10,8 9,0 8,0 13,1 16,5 17,7 7 4 10 5 WSW 1019,4 26 0 0,0
16.07.2019 00:00:00 12,3 9,7 9,5 14,2 16,7 17,7 8 4 12 6 W 1019,2 27 0 0,0
15.07.2019 23:00:00 12,5 10,2 12,2 14,6 17,0 17,7 4 2 11 6 WSW 1019,1 27 0 0,0
15.07.2019 22:00:00 13,0 10,2 11,1 15,3 17,2 17,7 8 5 10 5 SW 1019,0 28 2 0,0
15.07.2019 21:00:00 15,6 10,4 14,5 16,8 17,2 17,7 6 3 16 9 SW 1018,8 39 59 0,0
15.07.2019 20:00:00 17,1 10,1 18,0 17,5 17,1 17,7 9 5 18 10 WSW 1018,8 45 17 0,0
15.07.2019 19:00:00 17,0 9,5 18,8 17,8 17,0 17,7 12 6 18 10 WSW 1019,2 43 10 0,0
15.07.2019 18:00:00 15,8 9,6 16,4 16,9 16,9 17,7 11 6 18 10 WNW 1019,6 44 0 0,0
15.07.2019 17:00:00 15,4 9,7 16,1 16,7 16,9 17,7 13 7 19 10 W 1019,9 39 0 0,0
15.07.2019 16:00:00 15,2 9,4 16,3 16,6 16,8 17,7 17 9 26 14 WNW 1020,0 44 0 0,0
15.07.2019 15:00:00 14,9 10,4 15,8 16,8 16,7 17,7 12 7 21 11 W 1019,9 36 0 0,0
15.07.2019 14:00:00 14,9 10,2 16,4 16,7 16,6 17,8 11 6 21 11 WNW 1020,0 29 0 0,0
15.07.2019 13:00:00 14,5 10,2 15,8 16,5 16,5 17,8 8 5 17 9 NNW 1020,0 39 0 0,0
15.07.2019 12:00:00 14,5 9,8 15,4 16,1 16,4 17,8 11 6 16 9 WNW 1019,9 31 0 0,0
15.07.2019 11:00:00 14,3 8,9 15,4 15,7 16,3 17,8 10 6 17 9 WNW 1020,0 30 0 0,0
15.07.2019 10:00:00 14,1 10,0 14,9 15,4 16,2 17,8 8 4 13 7 WNW 1020,0 25 0 0,0
15.07.2019 09:00:00 13,3 10,8 14,1 14,9 16,2 17,8 5 3 8 4 W 1020,0 19 0 0,0
15.07.2019 08:00:00 12,7 10,9 13,1 14,5 16,3 17,8 3 2 6 3 W 1019,8 18 0 0,0
15.07.2019 07:00:00 12,3 10,8 12,6 14,2 16,4 17,8 2 1 8 4 WSW 1019,5 16 0 0,0
15.07.2019 06:00:00 11,8 10,3 11,9 13,9 16,5 17,8 5 3 8 4 W 1019,5 17 0 0,0
15.07.2019 05:00:00 10,6 9,7 10,5 13,4 16,8 17,8 3 1 6 3 SSW 1019,5 17 0 0,0
15.07.2019 04:00:00 10,5 9,3 8,2 13,6 17,1 17,8 6 3 8 4 W 1019,7 20 0 0,0
15.07.2019 03:00:00 12,6 10,1 10,5 14,8 17,3 17,8 6 3 9 5 NW 1019,9 31 0 0,0
15.07.2019 02:00:00 13,8 10,2 13,2 15,2 17,6 17,8 7 4 13 7 NNW 1019,7 40 0 0,0
15.07.2019 01:00:00 14,5 10,3 14,2 15,6 17,7 17,9 9 5 16 9 N 1020,0 44 0 0,0
15.07.2019 00:00:00 15,2 10,7 14,8 16,1 17,9 17,9 8 5 11 6 N 1020,0 43 0 0,0
14.07.2019 23:00:00 15,2 10,8 14,8 16,4 18,1 17,9 5 3 10 5 NNW 1019,9 51 0 0,0
14.07.2019 22:00:00 15,4 12,0 15,1 16,8 18,2 17,9 3 2 10 5 N 1019,7 56 0 0,0
14.07.2019 21:00:00 16,2 10,8 16,0 17,1 18,4 17,9 6 3 11 6 N 1019,6 70 0 0,0
14.07.2019 20:00:00 16,5 10,7 16,6 17,6 18,5 17,9 7 4 14 7 N 1019,3 70 0 0,0
14.07.2019 19:00:00 16,9 10,1 17,5 18,2 18,6 17,9 9 5 16 9 NNW 1019,2 62 0 0,0
14.07.2019 18:00:00 16,9 10,0 17,5 18,8 18,6 17,9 10 5 18 10 N 1019,3 70 0 0,0
14.07.2019 17:00:00 16,7 10,1 17,9 19,1 18,5 17,9 8 4 18 10 NNW 1019,5 52 0 0,0
14.07.2019 16:00:00 16,3 9,9 17,6 18,5 18,5 17,9 8 4 16 9 N 1019,7 67 0 0,0
14.07.2019 15:00:00 16,2 10,5 17,4 19,4 18,4 17,9 10 5 17 9 N 1019,8 65 0 0,0
14.07.2019 14:00:00 16,3 9,5 18,4 19,6 18,1 17,9 12 6 18 10 NW 1019,8 66 0 0,0
14.07.2019 13:00:00 16,1 10,2 18,6 19,0 17,9 17,9 6 3 20 11 NNW 1019,9 55 0 0,0
14.07.2019 12:00:00 15,8 10,5 18,2 19,0 17,7 17,9 11 6 18 10 WNW 1019,9 40 0 0,0
14.07.2019 11:00:00 14,4 10,5 16,4 17,8 17,5 17,9 13 7 20 11 NW 1019,8 36 1 0,0
14.07.2019 10:00:00 14,1 10,4 15,1 17,1 17,4 17,9 11 6 19 10 NW 1019,6 42 1 0,0
14.07.2019 09:00:00 14,1 10,5 15,2 17,1 17,3 17,9 11 6 17 9 NNW 1019,3 30 4 0,0
14.07.2019 08:00:00 12,8 11,5 13,4 15,9 17,4 18,0 4 2 8 4 WSW 1019,3 17 0 0,0
14.07.2019 07:00:00 12,2 11,3 12,5 15,2 17,5 18,0 4 2 21 11 NW 1019,4 7 0 0,2
14.07.2019 06:00:00 12,9 11,8 13,0 15,5 17,7 18,0 4 2 9 5 WNW 1019,3 6 0 0,0
14.07.2019 05:00:00 12,9 11,5 12,9 15,6 17,8 18,0 10 5 13 7 N 1019,1 11 0 0,0
14.07.2019 04:00:00 13,3 12,2 13,5 15,9 18,0 18,0 5 3 6 3 WNW 1019,3 20 0 0,0
14.07.2019 03:00:00 13,5 12,4 13,5 16,0 18,2 18,0 4 2 8 4 SW 1019,5 20 0 0,0
14.07.2019 02:00:00 13,3 12,0 13,2 15,9 18,4 18,0 7 4 26 14 NNW 1019,6 14 0 0,0
14.07.2019 01:00:00 15,0 11,7 15,0 16,5 18,6 18,0 8 4 17 9 NW 1019,5 43 0 0,0
14.07.2019 00:00:00 15,1 11,8 14,9 16,3 18,9 18,0 7 4 21 11 NW 1019,4 35 0 0,0
13.07.2019 23:00:00 15,6 11,5 14,4 16,6 19,3 18,0 15 8 26 14 NW 1019,0 35 0 0,0
13.07.2019 22:00:00 16,1 13,2 14,6 17,8 19,5 18,0 11 6 16 8 WNW 1018,2 46 0 0,0
13.07.2019 21:00:00 18,0 14,3 17,7 18,9 19,7 18,0 10 5 16 9 W 1017,5 66 5 0,0
13.07.2019 20:00:00 17,6 14,1 16,5 19,3 19,8 18,0 9 5 29 16 WNW 1017,3 58 2 0,2
13.07.2019 19:00:00 20,5 12,7 20,9 21,2 19,8 18,0 17 9 29 16 W 1017,0 70 35 0,0
13.07.2019 18:00:00 20,6 12,9 22,0 21,0 19,6 18,0 16 8 26 14 WNW 1017,1 70 4 0,0
13.07.2019 17:00:00 20,4 12,9 21,8 22,0 19,3 18,0 16 9 29 16 NW 1017,2 66 14 0,0
13.07.2019 16:00:00 20,5 13,5 24,5 22,5 19,0 18,0 11 6 28 15 W 1017,3 64 23 0,0
13.07.2019 15:00:00 18,1 13,2 18,8 19,5 18,8 18,0 15 8 28 15 WNW 1017,8 70 0 0,0
13.07.2019 14:00:00 18,2 13,2 20,8 19,5 18,6 18,0 18 10 27 15 WNW 1017,7 58 0 0,0
13.07.2019 13:00:00 16,5 12,8 16,2 18,8 18,5 18,0 19 10 31 17 NW 1017,8 34 0 0,0
13.07.2019 12:00:00 17,3 13,5 19,1 18,9 18,4 18,0 18 10 26 14 WNW 1017,4 38 0 0,0
13.07.2019 11:00:00 16,3 13,9 17,8 17,7 18,4 18,0 12 6 25 13 NW 1017,2 25 0 0,0
13.07.2019 10:00:00 15,9 13,8 16,1 17,8 18,3 18,0 13 7 22 12 W 1016,7 16 0 0,0
13.07.2019 09:00:00 16,1 14,1 17,5 17,7 18,3 18,1 10 6 22 12 W 1016,5 14 0 0,0
13.07.2019 08:00:00 16,0 14,4 17,0 17,4 18,3 18,1 13 7 18 10 WNW 1015,9 11 3 0,0
13.07.2019 07:00:00 15,2 14,4 15,4 16,8 18,4 18,1 12 6 18 10 WNW 1015,5 5 0 0,0
13.07.2019 06:00:00 15,1 14,4 15,3 16,8 18,6 18,1 10 5 16 9 W 1015,1 5 0 0,0
13.07.2019 05:00:00 15,1 14,4 15,2 16,8 18,7 18,1 12 6 22 12 W 1014,8 6 0 0,0
13.07.2019 04:00:00 15,2 14,6 15,4 17,0 18,9 18,1 13 7 18 10 W 1014,6 6 0 0,0
13.07.2019 03:00:00 15,5 14,7 15,6 17,1 19,1 18,1 11 6 16 9 W 1014,5 7 0 0,0
13.07.2019 02:00:00 15,4 14,7 15,5 17,1 19,3 18,1 14 7 19 11 WNW 1014,5 7 0 0,0
13.07.2019 01:00:00 15,1 14,4 14,9 17,2 19,6 18,1 12 6 19 10 W 1014,1 8 0 0,0
13.07.2019 00:00:00 15,4 14,6 15,5 17,7 19,9 18,1 14 8 24 13 W 1013,7 8 0 0,0
12.07.2019 23:00:00 15,4 14,7 15,4 17,8 20,2 18,1 16 9 26 14 W 1013,3 9 0 3,6
12.07.2019 22:00:00 15,8 14,2 15,2 18,6 20,5 18,1 19 10 29 16 W 1012,7 2,7 0 0,2
12.07.2019 21:00:00 17,3 12,8 17,2 19,2 20,8 18,1 11 6 29 16 W 1012,2 70 0 0,0
12.07.2019 20:00:00 18,2 13,7 18,5 20,5 21,1 18,1 19 10 31 17 NW 1011,8 34 0 0,0
12.07.2019 19:00:00 17,5 14,9 18,2 21,0 21,3 18,1 13 7 30 16 NNE 1010,9 19 0 0,0
12.07.2019 18:00:00 19,5 14,7 20,7 22,2 21,4 18,1 20 11 35 19 N 1010,4 26 1 0,0
12.07.2019 17:00:00 22,0 13,1 22,2 22,7 21,5 18,1 21 11 31 17 WNW 1010,1 44 0 0,0
12.07.2019 16:00:00 23,2 12,7 24,5 24,8 21,2 18,1 19 10 30 16 W 1009,7 50 24 0,0
12.07.2019 15:00:00 22,9 13,8 26,0 26,1 20,7 18,1 16 9 29 16 W 1010,1 20 39 0,0
12.07.2019 14:00:00 21,4 15,1 24,1 25,8 20,1 18,1 7 4 13 7 WSW 1010,4 9 40 0,0
12.07.2019 13:00:00 20,2 15,0 21,2 22,3 19,8 18,1 0 0 10 6 N 1011,0 7 1 0,3
12.07.2019 12:00:00 20,5 15,4 22,2 22,7 19,4 18,1 9 5 16 8 NW 1011,2 8 0 0,0
12.07.2019 11:00:00 20,1 15,3 22,9 22,7 18,9 18,1 8 5 20 11 W 1011,3 8 43 0,0
12.07.2019 10:00:00 19,6 15,2 21,8 22,1 18,3 18,1 8 4 15 8 W 1011,3 9 50 0,0
12.07.2019 09:00:00 18,3 15,2 21,1 19,3 18,0 18,1 5 3 10 5 S 1011,5 8 20 0,0
12.07.2019 08:00:00 17,4 15,3 18,0 17,8 17,9 18,1 3 1 4 2 SSW 1011,7 7 42 0,0
12.07.2019 07:00:00 15,2 14,6 16,4 16,0 18,0 18,2 4 2 8 4 SSW 1011,7 3,6 4 0,0
12.07.2019 06:00:00 14,3 13,9 13,3 15,5 18,2 18,2 5 3 6 4 SW 1011,7 3,8 0 0,0
12.07.2019 05:00:00 13,3 13,1 11,9 15,6 18,4 18,2 5 3 9 5 S 1011,6 1,5 0 0,0
12.07.2019 04:00:00 14,0 13,8 12,9 15,9 18,7 18,2 4 2 7 4 SW 1011,8 2,3 0 0,0
12.07.2019 03:00:00 13,4 13,3 12,2 16,3 19,0 18,2 3 2 5 3 S 1012,0 0,1 0 0,0
12.07.2019 02:00:00 14,5 14,0 13,7 16,9 19,2 18,2 3 1 5 3 NNW 1012,1 2,6 0 0,0
12.07.2019 01:00:00 14,5 14,2 14,0 17,1 19,5 18,2 4 2 5 3 SSW 1012,1 5 0 0,0
12.07.2019 00:00:00 14,0 13,7 13,2 17,4 19,8 18,2 0 0 12 6 N 1012,6 4,0 0 0,0
11.07.2019 23:00:00 15,2 14,3 14,3 18,1 20,1 18,2 4 2 9 5 E 1012,5 13 0 0,0
11.07.2019 22:00:00 15,4 14,7 15,4 18,7 20,4 18,2 3 2 10 5 SSW 1012,7 8 0 0,9
11.07.2019 21:00:00 15,6 14,6 15,8 19,5 20,6 18,2 7 4 16 9 SE 1012,6 15 0 0,0
11.07.2019 20:00:00 15,9 14,7 17,4 20,4 20,8 18,2 9 5 16 9 SE 1013,0 11 9 1,8
11.07.2019 19:00:00 15,3 14,7 15,5 19,7 21,1 18,2 9 5 55 30 N 1013,0 4,2 0 8,0
11.07.2019 18:00:00 21,7 14,5 22,0 23,7 20,9 18,2 10 5 20 11 ESE 1010,9 24 7 0,0
11.07.2019 17:00:00 22,3 14,4 24,6 24,5 20,6 18,2 8 4 18 10 SSW 1011,6 22 14 0,0
11.07.2019 16:00:00 21,6 14,1 24,9 23,7 20,2 18,2 10 5 17 9 SW 1012,3 23 0 0,0
11.07.2019 15:00:00 19,4 16,2 21,6 22,4 20,0 18,2 6 3 10 6 ENE 1012,7 21 0 0,0
11.07.2019 14:00:00 18,3 16,1 20,2 21,9 19,7 18,2 9 5 13 7 E 1013,1 26 0 0,0
11.07.2019 13:00:00 17,0 15,2 18,6 20,5 19,5 18,2 9 5 13 7 E 1013,6 20 0 0,0
11.07.2019 12:00:00 15,9 14,9 16,8 19,4 19,5 18,2 6 4 9 5 ESE 1014,0 9 0 1,6
11.07.2019 11:00:00 15,6 14,9 16,2 19,0 19,5 18,2 4 2 8 4 SW 1014,4 2,6 0 2,2
11.07.2019 10:00:00 15,2 14,4 15,9 18,9 19,6 18,2 5 3 8 4 SSW 1014,4 2,7 0 1,2

tt = Température de l'air
td = dewpoint
tt 5cm = Température de l'air 5cm
tt -5cm = Température de l'air -5cm
tt -20cm = Température de l'air -20cm
tt -100cm = Température de l'air -100cm
ff = Vitesse du vent
fx = gusts
dd = Direction du vent
ppp = reduced air pressure
vv = visibility
sd = Ensoleillement
rr = Quantités de précipitations

stations d'obs. à proximité